| time (UTC) | temp F | wind direction | speed MPH | gust MPH | rain 1hr in | rain 24hr in | rain mn in | humidity % | barometer mb |
| 20260504190716 | 48 | 0.0 | 0.0 | 0.00 | 0.00 | 0.00 | 75 | 1000.0 | |
| 20260504184715 | 48 | 0.0 | 0.0 | 0.00 | 0.00 | 0.00 | 74 | 1000.1 | |
| 20260504182715 | 49 | 0.0 | 0.0 | 0.00 | 0.00 | 0.00 | 70 | 1000.2 | |
| 20260504180715 | 49 | 0.0 | 0.0 | 0.00 | 0.00 | 0.00 | 66 | 1000.0 | |
| 20260504174715 | 49 | 0.0 | 0.0 | 0.00 | 0.00 | 0.00 | 66 | 1000.0 | |
| 20260504172714 | 50 | 0.0 | 0.0 | 0.00 | 0.00 | 0.00 | 64 | 1000.1 | |
| 20260504170715 | 50 | 0.0 | 0.0 | 0.00 | 0.00 | 0.00 | 62 | 1000.1 | |
| 20260504150714 | 51 | 0.0 | 0.0 | 0.00 | 0.00 | 0.00 | 63 | 1000.1 | |
| 20260504140714 | 52 | 0.0 | 0.0 | 0.00 | 0.00 | 0.00 | 52 | 1000.4 | |
| 20260504130714 | 52 | 0.0 | 0.0 | 0.00 | 0.00 | 0.00 | 48 | 1000.9 | |
| 20260504110713 | 48 | 0.0 | 0.0 | 0.00 | 0.00 | 0.00 | 35 | 1001.9 | |
| 20260504080713 | 46 | 0.0 | 0.0 | 0.00 | 0.00 | 0.00 | 45 | 1003.7 | |
| 20260504050712 | 41 | 0.0 | 0.0 | 0.00 | 0.00 | 0.00 | 61 | 1005.2 | |
| 20260504044712 | 41 | 0.0 | 0.0 | 0.00 | 0.00 | 0.00 | 60 | 1005.4 | |
| 20260504042712 | 39 | 0.0 | 0.0 | 0.00 | 0.00 | 0.00 | 65 | 1005.7 | |
| 20260504040712 | 38 | 0.0 | 0.0 | 0.00 | 0.00 | 0.00 | 67 | 1005.9 | |
| 20260504034712 | 37 | 0.0 | 0.0 | 0.00 | 0.01 | 0.00 | 70 | 1006.1 | |
| 20260504032713 | 35 | 0.0 | 0.0 | 0.00 | 0.01 | 0.00 | 75 | 1006.2 | |
| 20260504030713 | 35 | 0.0 | 0.0 | 0.00 | 0.01 | 0.00 | 77 | 1006.4 | |
| 20260504024712 | 33 | 0.0 | 0.0 | 0.00 | 0.01 | 0.00 | 79 | 1006.6 | |
| 20260504022712 | 32 | 0.0 | 0.0 | 0.00 | 0.01 | 0.00 | 80 | 1006.8 | |
| 20260504020712 | 31 | 0.0 | 0.0 | 0.00 | 0.01 | 0.00 | 80 | 1006.8 | |
| 20260504014712 | 31 | 0.0 | 0.0 | 0.00 | 0.01 | 0.00 | 80 | 1006.9 | |
| 20260504012712 | 32 | 0.0 | 0.0 | 0.00 | 0.01 | 0.00 | 76 | 1007.1 | |
| 20260504010713 | 32 | 0.0 | 0.0 | 0.00 | 0.01 | 0.00 | 77 | 1007.2 | |
| 20260504004712 | 33 | 0.0 | 0.0 | 0.00 | 0.01 | 0.00 | 74 | 1007.3 | |
| 20260504002713 | 34 | 0.0 | 0.0 | 0.00 | 0.01 | 0.00 | 72 | 1007.4 | |
| 20260504000712 | 35 | 0.0 | 0.0 | 0.00 | 0.01 | 0.00 | 69 | 1007.5 | |
| 20260503234712 | 36 | 0.0 | 0.0 | 0.00 | 0.01 | 0.00 | 65 | 1007.6 | |
| 20260503232712 | 36 | 0.0 | 0.0 | 0.00 | 0.01 | 0.00 | 65 | 1007.5 | |
| 20260503230711 | 37 | 0.0 | 0.0 | 0.00 | 0.01 | 0.00 | 61 | 1007.7 | |
| 20260503224712 | 39 | 0.0 | 0.0 | 0.00 | 0.01 | 0.00 | 57 | 1007.9 | |
| 20260503222712 | 39 | 0.0 | 0.0 | 0.00 | 0.01 | 0.00 | 56 | 1007.9 | |
| 20260503220711 | 40 | 0.0 | 0.0 | 0.00 | 0.01 | 0.00 | 53 | 1008.1 | |
| 20260503214711 | 40 | 0.0 | 0.0 | 0.00 | 0.01 | 0.00 | 54 | 1008.2 | |
| 20260503212711 | 42 | 0.0 | 0.0 | 0.00 | 0.01 | 0.00 | 52 | 1008.1 | |
| 20260503210712 | 45 | 0.0 | 0.0 | 0.00 | 0.01 | 0.00 | 47 | 1008.2 | |
| 20260503204711 | 45 | 0.0 | 0.0 | 0.00 | 0.01 | 0.01 | 50 | 1008.0 | |
| 20260503202711 | 47 | 0.0 | 0.0 | 0.00 | 0.01 | 0.01 | 44 | 1008.0 | |
| 20260503200711 | 48 | 0.0 | 0.0 | 0.00 | 0.01 | 0.01 | 42 | 1008.1 | |
| 20260503194710 | 49 | 0.0 | 0.0 | 0.00 | 0.01 | 0.01 | 41 | 1007.9 | |
| 20260503192710 | 50 | 0.0 | 0.0 | 0.00 | 0.01 | 0.01 | 38 | 1007.8 |